Location: ??????
(56.0120°N, 39.1740°E)
Time: 22:42:57
(UTC+00:00)

Cosmos 1937 Rocket - Pass Details

Date: 14 April 2026
Orbit: 742 x 775 km, 74.0° (Epoch: 13 May)

Event Time Altitude Azimuth Distance (km) Brightness Sun altitude
Rises 17:23:26 0° 208° (SSW) 3,245 6.7 -7.9°
Reaches altitude 10° 17:25:48 10° 208° (SSW) 2,321 6.0 -8.2°
Maximum altitude 17:31:06 86° 298° (WNW) 784 3.6 -8.8°
Drops below altitude 10° 17:36:25 10° 28° (NNE) 2,327 6.1 -9.4°
Sets 17:38:48 0° 29° (NNE) 3,254 6.8 -9.7°
